{"data":{"norad_id":69029,"intl_designator":"2026-101E","name":"STARLINK-37635","alt_names":[],"object_type":"PAYLOAD","status":"ACTIVE","operator":null,"country":"US","launch_date":"2026-05-06","launch_site_code":"AFWTR","launch_vehicle":null,"mission":null,"orbit_class":"UNKNOWN","rcs_meters":null,"size_class":null,"mass_kg":null,"dimensions":null,"purposes":["comms"],"wikipedia_slug":null,"has_3d_model":false,"image_url":null,"decayed_at":null,"tle_current":{"epoch":"2026-09-20T00:37:24.487104Z","epoch_age_seconds":60311,"freshness":"FRESH","line1":"1 69029U 26101E   26263.02597786  .00018367  00000+0  56964-3 0  9996","line2":"2 69029  97.2846 116.4794 0001701  83.7401 276.4035 15.33457049 21100","mean_motion":15.33457049,"eccentricity":0.0001701,"inclination_deg":97.2846,"raan_deg":116.4794,"arg_perigee_deg":83.7401,"mean_anomaly_deg":276.4035,"bstar":0.00056964,"rev_number":2110,"period_min":93.905466797329,"perigee_km":464.34322146632,"apogee_km":466.6714292658,"semimajor_km":6843.6443253661,"source":"CELESTRAK","updated_at":"2026-09-20T09:00:44.058700Z"}}}